Flag for U.S.A. Weather past 2 weeks in Mountain View, California, U.S.A.

Now
59 °F

Clear.


Feels Like: 59 °F
Forecast: 52 / 70 °F
Wind: No wind

Location: Moffett Field


UV Index: 5 (Moderate)

Visibility: 10 mi


Pressure: 29.87 "Hg

Humidity: 69%

Dew point: 49 °F

Location of Mountain ViewLocation

Historic Weather in Mountain View

°F

Mountain View temperature yesterday

Maximum temperature yesterday: 75 °F (at 1:56 PM)
Minimum temperature yesterday: 52 °F (at 4:56 AM)
Average temperature yesterday: 63 °F

Past Weeks' High & Low Weather Summary

 TemperatureHumidityPressure
High81 °F (Apr 8, 1:56 PM)90% (Apr 2, 2:56 AM)30.25 "Hg (Apr 2, 2:56 AM)
Low45 °F (Apr 2, 12:56 AM)29% (Apr 10, 3:56 PM)29.83 "Hg (Apr 16, 5:56 PM)
Average60 °F69%30.04 "Hg
* Reported Apr 1 10:56 PM — Apr 16 10:56 PM, Mountain View, Weather by CustomWeather, © 2014

Note: Actual official high and low records may vary slightly from our data, if they occured in-between our weather recording intervals... More about our weather records

Advertising

Historic Weather Conditions — Data for Previous 24 hours

 ConditionsComfort  
Time TempWeatherWind HumidityBarometerVisibility
10:56 PM
Apr 16
59 °FClear.No wind72%29.88 "Hg10 mi
9:56 PM60 °FClear.8 mph69%29.87 "Hg10 mi
8:56 PM61 °FClear.10 mph75%29.85 "Hg10 mi
7:56 PM64 °FSunny.12 mph70%29.83 "Hg10 mi
6:56 PM67 °FSunny.14 mph61%29.83 "Hg10 mi
5:56 PM71 °FSunny.17 mph53%29.83 "Hg10 mi
4:56 PM74 °FSunny.12 mph41%29.83 "Hg10 mi
3:56 PM75 °FSunny.16 mph42%29.85 "Hg10 mi
2:56 PM75 °FSunny.13 mph42%29.86 "Hg10 mi
1:56 PM75 °FSunny.13 mph45%29.87 "Hg10 mi
12:56 PM71 °FSunny.17 mph45%29.90 "Hg10 mi
11:56 AM70 °FSunny.13 mph55%29.91 "Hg10 mi
10:56 AM66 °FSunny.6 mph63%29.93 "Hg10 mi
9:56 AM61 °FSunny.5 mph67%29.93 "Hg9 mi
8:56 AM59 °FSunny.No wind69%29.94 "Hg9 mi
7:56 AM56 °FSunny.No wind75%29.94 "Hg9 mi
6:56 AM53 °FClear.No wind77%29.93 "Hg10 mi
5:56 AM53 °FClear.No wind77%29.92 "Hg10 mi
4:56 AM52 °FClear.No wind80%29.93 "Hg10 mi
3:56 AM54 °FClear.No wind74%29.94 "Hg10 mi
2:56 AM54 °FClear.3 mph77%29.94 "Hg10 mi
1:56 AM55 °FClear.No wind77%29.95 "Hg10 mi
12:56 AM55 °FClear.No wind74%29.93 "Hg10 mi
Weather by CustomWeather, © 2014

See weather overview